Regional Weather Roundup
Issued by NWS

Home | Current Version | Previous Version | Text Only | Print | Product List | Glossary Off
Versions: 1 2 3 4 5 6 7 8 9 10 11 12 13 14 15 16 17 18 19 20 21 22 23 24 25 26 27 28 29 30 31 32 33 34 35 36 37 38 39 40 41 42 43 44 45 46 47 48 49 50

000
ASUS43 KBIS 270202
RWRND

NORTH DAKOTA REGIONAL WEATHER ROUNDUP
NATIONAL WEATHER SERVICE BISMARCK ND
900 PM CDT TUE JUL 26 2016

NOTE: "FAIR" INDICATES FEW OR NO CLOUDS BELOW 12,000 FEET WITH NO
SIGNIFICANT WEATHER AND/OR OBSTRUCTIONS TO VISIBILITY.


NDZ001>003-009>011-017-270300-
NORTHWEST NORTH DAKOTA

CITY           SKY/WX    TMP DP  RH WIND       PRES   REMARKS
WILLISTON      PTCLDY    76  55  48 NE8       30.06S
MINOT          CLOUDY    73  60  63 N7        30.04F
MINOT AFB      MOCLDY    72  57  60 N6        30.03F
$$

NDZ018>021-031>035-040>046-270300-
SOUTHWEST NORTH DAKOTA

CITY           SKY/WX    TMP DP  RH WIND       PRES   REMARKS
BISMARCK       MOCLDY    75  60  59 NE9       30.02R
DICKINSON      CLEAR     68  58  70 E5        30.05S
GARRISON         N/A     70  62  76 N7        30.04S
HETTINGER ARPT CLEAR     74  61  63 NE17      30.07R
$$

NDZ004>008-012>016-024-026-027-054-270300-
NORTHEAST NORTH DAKOTA

CITY           SKY/WX    TMP DP  RH WIND       PRES   REMARKS
GRAND FORKS    CLOUDY    75  64  68 N9        29.97S
GRND FRKS AFB  CLOUDY    72  66  79 N8        29.99R
DEVILS LAKE    CLOUDY    68  65  90 SW3       30.05R
$$

NDZ022-023-025-028>030-036>039-047>053-270300-
SOUTHEAST NORTH DAKOTA

CITY           SKY/WX    TMP DP  RH WIND       PRES   REMARKS
FARGO          LGT RAIN  73  67  81 SW6       29.94S
JAMESTOWN      LGT RAIN  70  68  93 E3        29.99S
$$





USA.gov is the U.S. government's official web portal to all federal, state and local government web resources and services.